GW3210 Weather Reports


time (UTC)temp
F
wind
direction
speed
knots
gust
knots
rain 1hr
in
rain 24hr
in
rain mn
in
humidity
%
barometer
mb
20260906064615 59 158 1.7 2.6 0.00 0.00 0.00 65 1017.0
20260906063615 59 158 1.7 2.6 0.00 0.00 0.00 65 1017.1
20260906062616 59 180 1.7 3.5 0.00 0.00 0.00 64 1017.1
20260906061615 59 158 1.7 3.5 0.00 0.00 0.00 64 1017.1
20260906060655 59 180 1.7 2.6 0.00 0.00 0.00 63 1017.1
20260906055615 59 180 1.7 2.6 0.00 0.00 0.00 64 1017.0
20260906054615 59 270 1.7 2.6 0.00 0.00 0.00 64 1017.1
20260906053636 58 293 0.9 1.7 0.00 0.00 0.00 64 1017.0
20260906052615 58 113 0.9 0.9 0.00 0.00 0.00 63 1017.0
20260906051635 58 0.0 0.0 0.00 0.00 0.00 63 1017.2
20260906050635 59 0.0 0.0 0.00 0.00 0.00 62 1017.2
20260906045615 59 0.0 0.9 0.00 0.00 0.00 62 1017.2
20260906044615 60 135 1.7 1.7 0.00 0.00 0.00 62 1017.3
20260906043637 60 135 1.7 2.6 0.00 0.00 0.00 61 1017.4
20260906042637 61 0.0 0.0 0.00 0.00 0.00 60 1017.4
20260906041637 61 158 0.9 0.9 0.00 0.00 0.00 60 1017.6
20260906040617 61 158 0.9 1.7 0.00 0.00 0.00 59 1017.5
20260906035617 62 158 0.9 1.7 0.00 0.00 0.00 58 1017.4
20260906034617 62 158 0.9 0.9 0.00 0.00 0.00 55 1017.4
20260906033617 63 0.0 0.9 0.00 0.00 0.00 52 1017.3
20260906032617 63 0.0 0.0 0.00 0.00 0.00 51 1017.0
20260906031617 64 0.0 0.0 0.00 0.00 0.00 49 1017.0
20260906030617 64 0.0 0.9 0.00 0.00 0.00 48 1016.9
20260906025617 65 315 0.9 1.7 0.00 0.00 0.00 47 1017.0
20260906024617 65 315 2.6 3.5 0.00 0.00 0.00 47 1017.0
20260906023617 65 338 1.7 2.6 0.00 0.00 0.00 47 1017.1
20260906022617 66 293 1.7 2.6 0.00 0.00 0.00 49 1017.1
20260906021617 67 0.0 0.9 0.00 0.00 0.00 50 1017.2
20260906020617 68 338 0.9 0.9 0.00 0.00 0.00 47 1017.3
20260906015617 69 0.0 0.9 0.00 0.00 0.00 46 1017.4
20260906014617 70 0.0 0.9 0.00 0.00 0.00 44 1017.4
20260906013637 70 0.0 0.9 0.00 0.00 0.00 41 1017.4
20260906012617 71 0.0 0.0 0.00 0.00 0.00 40 1017.4
20260906011617 72 338 0.9 1.7 0.00 0.00 0.00 38 1017.4
20260906010637 72 0.0 0.9 0.00 0.00 0.00 40 1017.5
20260906005616 72 338 0.9 1.7 0.00 0.00 0.00 39 1017.5
20260906004637 71 338 1.7 2.6 0.00 0.00 0.00 41 1017.4
20260906003617 70 0.0 0.0 0.00 0.00 0.00 40 1017.5
20260906002617 71 0.0 0.9 0.00 0.00 0.00 39 1017.5
20260906001617 71 0.0 0.9 0.00 0.00 0.00 39 1017.5
20260906000617 72 338 1.7 2.6 0.00 0.00 0.00 37 1017.5
20260905235616 73 23 0.9 1.7 0.00 0.00 0.00 37 1017.5
20260905234616 71 338 1.7 3.5 0.00 0.00 0.00 39 1017.5
20260905233618 70 0 0.9 0.9 0.00 0.00 0.00 39 1017.4
20260905232617 71 45 0.9 1.7 0.00 0.00 0.00 38 1017.6
20260905231636 71 0 1.7 1.7 0.00 0.00 0.00 37 1017.8
20260905230617 72 338 3.5 5.2 0.00 0.00 0.00 37 1017.7
20260905225616 71 248 0.9 1.7 0.00 0.01 0.00 35 1017.8
20260905224617 70 338 1.7 3.5 0.00 0.01 0.00 38 1017.6
20260905223656 70 270 3.5 5.2 0.00 0.02 0.00 36 1017.7
20260905222616 71 270 2.6 3.5 0.00 0.02 0.00 36 1017.8
20260905221617 73 270 2.6 7.0 0.00 0.03 0.00 36 1017.9
20260905220616 72 293 5.2 7.0 0.00 0.03 0.00 38 1017.8
20260905215616 71 315 3.5 5.2 0.00 0.04 0.00 38 1018.1
20260905214616 72 293 3.5 6.1 0.00 0.05 0.00 39 1018.1
20260905213616 72 225 2.6 3.5 0.00 0.05 0.00 39 1018.1
20260905212616 73 338 3.5 5.2 0.00 0.05 0.00 39 1018.1
20260905211616 72 158 1.7 3.5 0.00 0.05 0.00 38 1018.1
20260905210616 72 293 5.2 7.0 0.00 0.05 0.00 39 1018.2
20260905205616 71 293 1.7 4.3 0.00 0.05 0.00 40 1018.4
20260905204616 73 248 5.2 8.7 0.00 0.05 0.00 38 1018.6
20260905203616 73 338 2.6 4.3 0.00 0.05 0.00 39 1018.6
20260905202656 73 293 0.9 1.7 0.00 0.05 0.00 43 1018.6
20260905201616 73 248 5.2 7.0 0.00 0.05 0.00 40 1018.6
20260905200616 72 315 5.2 7.8 0.00 0.05 0.00 47 1018.6
20260905195616 71 293 4.3 7.0 0.00 0.05 0.00 46 1018.5
20260905194616 70 0 2.6 4.3 0.00 0.05 0.00 50 1018.6
20260905193616 69 293 2.6 6.1 0.00 0.05 0.00 50 1018.7
20260905192617 70 248 3.5 7.0 0.00 0.05 0.00 51 1018.9
20260905191616 69 293 1.7 2.6 0.00 0.05 0.00 53 1018.9
20260905190636 67 293 3.5 4.3 0.00 0.05 0.00 57 1019.0
20260905185616 67 338 2.6 2.6 0.00 0.05 0.00 59 1019.0
20260905184616 66 315 0.9 0.9 0.00 0.05 0.00 58 1019.1
20260905183616 66 0.0 0.9 0.00 0.05 0.00 58 1019.2
20260905182621 65 45 1.7 3.5 0.00 0.05 0.00 60 1019.4
20260905181616 65 270 1.7 2.6 0.00 0.05 0.00 63 1019.4
20260905180616 64 315 2.6 4.3 0.00 0.05 0.00 64 1019.4
20260905175616 63 0 1.7 2.6 0.00 0.05 0.00 65 1019.5
20260905174616 62 293 1.7 2.6 0.00 0.05 0.00 66 1019.4
20260905173615 60 270 1.7 2.6 0.00 0.05 0.00 69 1019.4
20260905172616 59 315 0.9 1.7 0.00 0.05 0.00 68 1019.4
20260905171615 59 315 0.9 1.7 0.00 0.05 0.00 70 1019.4
20260905170635 59 0 0.9 1.7 0.00 0.05 0.00 70 1019.3
20260905165616 58 293 0.9 0.9 0.00 0.05 0.00 70 1019.3
20260905164616 58 315 2.6 3.5 0.00 0.05 0.00 71 1019.3
20260905163616 57 0.0 0.9 0.00 0.05 0.00 71 1019.3
20260905162615 57 113 2.6 3.5 0.00 0.05 0.00 70 1019.2
20260905161615 57 270 0.9 2.6 0.00 0.05 0.00 72 1019.4
20260905160615 56 180 0.9 0.9 0.00 0.05 0.00 73 1019.3
20260905155616 56 180 0.9 0.9 0.00 0.05 0.00 77 1019.4
20260905154616 55 0.0 0.9 0.00 0.05 0.00 82 1019.3
20260905153655 54 0.0 0.9 0.00 0.05 0.00 82 1019.4
20260905152616 53 0.0 0.0 0.00 0.05 0.00 83 1019.3
20260905151616 53 158 0.9 0.9 0.00 0.05 0.00 83 1019.5
20260905150616 53 158 0.9 1.7 0.00 0.05 0.00 83 1019.3
20260905145615 52 158 0.9 1.7 0.00 0.05 0.00 83 1019.1
20260905144635 52 0.0 0.0 0.00 0.05 0.00 83 1019.1
20260905143615 52 0.0 0.0 0.00 0.05 0.00 84 1019.2
20260905142636 52 0.0 0.0 0.00 0.05 0.00 84 1019.2
20260905141615 52 0.0 0.0 0.00 0.05 0.00 83 1019.2
20260905140636 52 0.0 0.0 0.00 0.05 0.00 83 1019.2
20260905135615 52 0.0 0.9 0.00 0.06 0.00 83 1019.2
20260905134615 52 0.0 0.9 0.00 0.06 0.00 83 1019.1
20260905133615 52 0.0 0.0 0.00 0.06 0.00 83 1019.1
20260905132615 52 0.0 0.9 0.00 0.06 0.00 83 1019.0
20260905131615 52 0.0 0.9 0.00 0.06 0.00 83 1018.9
20260905130658 52 0.0 0.0 0.00 0.06 0.00 83 1019.0
20260905125615 52 158 0.9 0.9 0.00 0.07 0.00 83 1018.8
20260905124635 53 0.0 0.9 0.00 0.07 0.00 83 1018.9
20260905123615 53 158 0.9 1.7 0.00 0.07 0.00 83 1018.8
20260905122615 53 0.0 0.9 0.00 0.08 0.00 83 1018.8
20260905121615 53 158 0.9 0.9 0.00 0.09 0.00 83 1018.8
20260905120615 53 0.0 0.0 0.00 0.10 0.00 83 1018.8
20260905115617 53 158 0.9 1.7 0.00 0.10 0.00 83 1018.8
20260905114637 53 158 0.9 1.7 0.00 0.10 0.00 83 1018.7
20260905113617 53 158 0.9 1.7 0.00 0.10 0.00 83 1018.5
20260905112618 53 158 0.9 0.9 0.00 0.10 0.00 83 1018.6
20260905111617 53 0.0 0.9 0.00 0.10 0.00 83 1018.5
20260905110617 53 0.0 0.0 0.00 0.10 0.00 83 1018.6
20260905105617 53 158 0.9 0.9 0.00 0.10 0.00 83 1018.5
20260905104617 53 158 0.9 1.7 0.00 0.10 0.00 83 1018.7
20260905103638 53 158 1.7 4.3 0.00 0.10 0.00 83 1018.8
20260905102617 53 135 0.9 1.7 0.00 0.10 0.00 83 1018.7
20260905101617 53 135 0.9 1.7 0.00 0.10 0.00 83 1018.6
20260905100617 53 0.0 0.0 0.00 0.10 0.00 83 1018.5
20260905095617 53 0.0 0.0 0.00 0.10 0.00 82 1018.6
20260905094617 53 0.0 0.0 0.00 0.10 0.00 82 1018.8
20260905093617 53 0.0 0.9 0.00 0.10 0.00 82 1018.8
20260905092617 53 135 1.7 2.6 0.00 0.10 0.00 81 1018.7
20260905091637 52 113 1.7 2.6 0.00 0.10 0.00 76 1018.7
20260905090617 53 0.0 0.9 0.00 0.10 0.00 75 1018.6
20260905085617 53 0.0 0.9 0.00 0.10 0.00 75 1018.6
20260905084637 53 113 0.9 1.7 0.00 0.10 0.00 76 1018.6
20260905083617 54 113 0.9 1.7 0.00 0.10 0.00 76 1018.5
20260905082616 54 113 0.9 0.9 0.00 0.10 0.00 76 1018.4
20260905081617 54 0.0 0.0 0.00 0.10 0.00 76 1018.4
20260905080636 55 0.0 0.9 0.00 0.10 0.00 76 1018.4
20260905075617 55 0.0 0.0 0.00 0.10 0.00 76 1018.4
20260905074616 55 113 0.9 0.9 0.00 0.10 0.00 76 1018.4
20260905073637 55 0.0 0.9 0.00 0.10 0.00 75 1018.3
20260905072616 55 113 0.9 0.9 0.00 0.10 0.00 75 1018.3
20260905065756 55 0.0 0.9 0.00 0.10 0.10 76 1018.1